Zurück zum Katalog

THORAD AGENA D DEB

AktivSSO
NORAD 4710·DEBRIS·🇺🇸 United States

Gestartet Apr 8, 1970 von Vandenberg Space Force Base

Loading…

Nächste Überflüge (nächste 24 Stunden)

TLE

AktuellSource: Space-Track

Epoche: Sep 14, 2026, 06:57 UTC

1 04710U 70025BY  26257.28976451  .00000088  00000-0  19410-3 0  9994
2 04710 100.1824 273.4477 0004305 322.5601  49.6779 13.56002921785613

Verfolge THORAD AGENA D DEB in Echtzeit mit AllMySat

Download on the App Store